Voltar ao catálogo

FENGYUN 1C DEB

AtivoSSO
NORAD 30398·DEBRIS·🇨🇳 China

Lançado May 10, 1999 de Taiyuan Satellite Launch Center

Loading…

Próximas Passagens (próximas 24 horas)

TLE

AtualizadoSource: Space-Track

Época: Sep 13, 2026, 13:29 UTC

1 30398U 99025ADM 26256.56196852  .00000271  00000-0  28060-3 0  9990
2 30398  99.6944 164.6478 0172455 299.4688 184.2000 13.78937160985442

Acompanhe FENGYUN 1C DEB em tempo real com AllMySat

Download on the App Store